Weather History for Lumberton, NC

Change the Weather History Date:

Monday, March 14, 2011

  Actual Average Record
Temperature  
Mean Temperature 56 °F 54 °F  
Max Temperature 64 °F 66 °F 81 °F (2012)
Min Temperature 48 °F 42 °F 24 °F (2014)
Degree Days  
Heating Degree Days 9 12  
Month to date heating degree days 191 188  
Since 1 July heating degree days 2695 2418  
Cooling Degree Days 0 0  
Month to date cooling degree days 0 0  
Year to date cooling degree days 9 3  
Growing Degree Days 6 (Base 50)    
Moisture  
Dew Point 43 °F    
Average Humidity 67    
Maximum Humidity 86    
Minimum Humidity 48    
Precipitation  
Precipitation 0.00 in 0.10 in 0.25 in (1999)
Month to date precipitation 1.46 1.52  
Year to date precipitation 6.12 7.39  
Sea Level Pressure  
Sea Level Pressure 30.22 in    
Wind  
Wind Speed 8 mph (NE)    
Max Wind Speed 16 mph    
Max Gust Speed 22 mph    
Visibility 10 miles    
Events      
T = Trace of Precipitation, MM = Missing Value Source: NWS Daily Summary

Daily Weather History Graph

Daily Weather History Graph

Search for Another Location

Airport:

Trip Planner

Search our weather history database for the weather conditions in past years. The results will help you decide how hot, cold, wet, or windy it might be!

Date:

Astronomy

Mar. 14, 2011 Rise Set
Actual Time 7:28 AM EDT 7:22 PM EDT
Civil Twilight 7:03 AM EDT 7:48 PM EDT
Nautical Twilight 6:34 AM EDT 8:17 PM EDT
Astronomical Twilight 6:04 AM EDT 8:46 PM EDT
Moon 1:52 PM EDT (3/14) 3:35 AM EDT (3/14)
Length of Visible Light 12h 44m
Length of Day
11h 54m
Waxing Gibbous, 68% of the Moon is Illuminated
Mar 14
Waxing Gibbous
Mar 19
Full
Mar 26
Last Quarter
Apr 3
New
Apr 11
First Quarter

Hourly Weather History & Observations

Time (EDT) Temp. Dew Point Humidity Pressure Visibility Wind Dir Wind Speed Gust Speed Precip Events Conditions
12:54 AM 50.0 °F 46.0 °F 86% 30.14 in 10.0 mi Calm Calm - N/A   Clear
1:54 AM 50.0 °F 46.0 °F 86% 30.14 in 10.0 mi Calm Calm - N/A   Scattered Clouds
2:54 AM 51.1 °F 46.0 °F 83% 30.13 in 10.0 mi Calm Calm - N/A   Overcast
3:54 AM 51.1 °F 45.0 °F 80% 30.14 in 10.0 mi Calm Calm - N/A   Partly Cloudy
4:54 AM 54.0 °F 45.0 °F 72% 30.14 in 10.0 mi NE 8.1 mph - N/A   Clear
5:54 AM 52.0 °F 41.0 °F 66% 30.17 in 10.0 mi NE 8.1 mph - N/A   Clear
6:54 AM 50.0 °F 39.9 °F 68% 30.18 in 10.0 mi ENE 6.9 mph - N/A   Clear
7:54 AM 48.9 °F 39.9 °F 71% 30.21 in 10.0 mi NE 8.1 mph - N/A   Clear
8:54 AM 51.1 °F 41.0 °F 68% 30.23 in 10.0 mi ENE 11.5 mph 19.6 mph N/A   Clear
9:54 AM 53.1 °F 41.0 °F 64% 30.25 in 10.0 mi ENE 12.7 mph 20.7 mph N/A   Clear
10:54 AM 55.0 °F 41.0 °F 59% 30.26 in 10.0 mi NE 15.0 mph - N/A   Clear
11:54 AM 57.0 °F 41.0 °F 55% 30.26 in 10.0 mi NE 8.1 mph - N/A   Clear
12:54 PM 59.0 °F 42.1 °F 53% 30.26 in 10.0 mi East 4.6 mph - N/A   Clear
1:54 PM 61.0 °F 43.0 °F 52% 30.24 in 10.0 mi NE 11.5 mph - N/A   Clear
2:54 PM 63.0 °F 43.0 °F 48% 30.22 in 10.0 mi NNE 11.5 mph - N/A   Clear
3:54 PM 64.0 °F 44.1 °F 48% 30.21 in 10.0 mi NE 8.1 mph - N/A   Clear
4:54 PM 63.0 °F 44.1 °F 50% 30.21 in 10.0 mi NE 6.9 mph - N/A   Clear
5:54 PM 63.0 °F 43.0 °F 48% 30.20 in 10.0 mi ENE 8.1 mph - N/A   Clear
6:54 PM 61.0 °F 43.0 °F 52% 30.22 in 10.0 mi ENE 8.1 mph - N/A   Clear
7:54 PM 57.9 °F 42.1 °F 56% 30.25 in 10.0 mi NE 6.9 mph - N/A   Clear
8:54 PM 55.9 °F 41.0 °F 57% 30.27 in 10.0 mi NE 9.2 mph - N/A   Clear
9:54 PM 54.0 °F 41.0 °F 62% 30.30 in 10.0 mi ENE 9.2 mph - N/A   Clear
10:54 PM 52.0 °F 39.9 °F 63% 30.32 in 10.0 mi ENE 4.6 mph - N/A   Partly Cloudy
11:54 PM 51.1 °F 43.0 °F 74% 30.33 in 10.0 mi East 5.8 mph - N/A   Scattered Clouds